STARLINK-2463 (48122 NORAD) Tracking and Keplerian Element Data

This shows tracking and keplerian element data for the satellite.

Feedback or suggestion? Click here.




ElementValue
Catalog48122
NameSTARLINK-2463
Epoch Orbit180
Epoch Day136.75001157
Epoch Year2021
RAAN146.2154
Inclination53.0473
Eccentricity0.0003167
Argument of Perigee13.8442
Mean Anonmoly29.9892
Mean Motion15.73285647
Decay Rate-0.0010579
L11 48122U 21027AG 21136.75001157 -.00105790 00000-0 -75564-3 0 9992
L22 48122 53.0473 146.2154 0003167 13.8442 29.9892 15.73285647 1809

Live tracking and technical data element details for STARLINK-2463 (NORAD 48122). STARLINK-2463 can be tracked NOW for your location showing map with azimuth and elevation plus other details from your city location.

Track the satellite on the map from your city or location and see movement details for azimuth, elevation, latitude, longitude, range, height, and movement on the map or in text.







IsCatalogInMostPopularTable: catalog: 48122, numindb: 15
Update: records affected: 1



GetName: 48122 STARLINK-2463

Hit Count: updated at: Mon, 17 May 2021 15:41:14 GMT